Location: Newark
(37.4028°N, 22.1369°E)
Time: 08:48:00
(UTC+00:00)

X-37B - Visible Passes

Search period start: 20 September 2020 00:00
Search period end: 30 September 2020 00:00
Orbit: 386 x 387 km, 45.0° (Epoch: 18 September)

Date Brightness Start Highest point End Pass type
(mag) Time Alt. Az. Time Alt. Az. Time Alt. Az.
20 Sep 2.5 03:05:33 13° NW 03:07:41 24° NNE 03:10:21 10° ENE visible
21 Sep 3.2 02:09:45 19° NNE 02:09:45 19° NNE 02:11:23 10° ENE visible
21 Sep 1.4 03:42:52 10° NW 03:45:58 49° NNE 03:49:04 10° E visible
22 Sep 2.1 02:46:19 26° NNW 02:47:17 32° NNE 02:50:12 10° E visible
23 Sep 4.0 01:50:43 13° ENE 01:50:43 13° ENE 01:51:14 10° ENE visible
23 Sep 0.5 03:23:00 16° WNW 03:25:28 90° NNE 03:28:38 10° ESE visible
24 Sep 1.9 02:27:32 40° ENE 02:27:32 40° ENE 02:29:57 10° E visible
25 Sep 0.9 03:04:31 43° SW 03:04:52 45° SSW 03:07:55 10° SE visible
26 Sep 3.7 02:09:20 11° ESE 02:09:20 11° ESE 02:09:30 10° ESE visible
26 Sep 2.8 03:41:39 11° WSW 03:42:33 12° SW 03:43:45 10° SSW visible
27 Sep 3.3 02:46:37 11° SSE 02:46:37 11° SSE 02:46:45 10° SSE visible
